sat.trackr.live / text

‹ back to catalog

HULIANWANG DIGUI-18

NORAD 62978 · 2025-030H

PAYLOAD ACTIVE UNKNOWN

§ Identity

Operator
Country
PRC
Launch date
2025-02-11
Launch site
WSC
Launch vehicle
Mass (kg)
RCS (m²)

External: N2YO · Heavens-Above · Gunter

§ Orbital elements

Epoch: 2026-09-22T21:50:40.885152Z

Period
108.33 min
Inclination
50.0056°
Eccentricity
0.0000617
Mean motion
13.29326204 rev/d
Perigee alt
1,148.8 km
Apogee alt
1,149.8 km
Semi-major
7,527.4 km
B*
5.1952e-5
RAAN
245.0647°
Arg perigee
45.4935°
Mean anomaly
314.5987°
Rev number
7,886

§ Raw data

HULIANWANG DIGUI-181 62978U 25030H   26265.91019543 -.00000100  00000+0  51952-4 0  99922 62978  50.0056 245.0647 0000617  45.4935 314.5987 13.29326204 78860

JSON: /api/v1/satellites/62978 · /tle

For live sub-satellite position, see the globe view (requires WebGL).

§ Visibility from observer

Set your observer location to see the next 7 days of passes ≥ 10°. The values pass through the URL so the page stays shareable.

No JS? Fill the form by hand. The geolocation button needs JavaScript.